Time,TemperatureF,DewpointF,PressureIn,WindDirection,WindDirectionDegrees,WindSpeedMPH,WindSpeedGustMPH,Humidity,HourlyPrecipIn,Conditions,Clouds,dailyrainin,SoftwareType,DateUTC
2013-01-03 00:13:00,53.4,8.4,30.01,West,270,2.7,-999.0,16,-99.99,,,0.00,Acu-Link.com,2013-01-03 08:13:00,
2013-01-03 00:28:00,53.6,8.5,30.00,West,270,2.2,-999.0,16,-99.99,,,0.00,Acu-Link.com,2013-01-03 08:28:00,
2013-01-03 00:44:00,53.2,9.5,30.01,NNE,22,1.1,-999.0,17,-99.99,,,0.00,Acu-Link.com,2013-01-03 08:44:00,
2013-01-03 00:59:00,51.4,12.8,30.02,NNE,22,0.0,-999.0,21,-99.99,,,0.00,Acu-Link.com,2013-01-03 08:59:00,
2013-01-03 01:14:00,50.7,14.3,30.02,South,180,1.1,-999.0,23,-99.99,,,0.00,Acu-Link.com,2013-01-03 09:14:00,
2013-01-03 01:30:00,50.5,14.1,30.02,ESE,112,1.1,-999.0,23,-99.99,,,0.00,Acu-Link.com,2013-01-03 09:30:00,
2013-01-03 01:45:00,49.1,15.7,30.02,South,180,1.7,-999.0,26,-99.99,,,0.00,Acu-Link.com,2013-01-03 09:45:00,
2013-01-03 02:00:00,49.3,16.8,30.02,SSW,202,2.2,-999.0,27,-99.99,,,0.00,Acu-Link.com,2013-01-03 10:00:00,
2013-01-03 02:16:00,50.7,13.3,30.01,South,180,2.7,-999.0,22,-99.99,,,0.00,Acu-Link.com,2013-01-03 10:16:00,
2013-01-03 02:31:00,50.9,13.4,30.01,SW,225,3.7,-999.0,22,-99.99,,,0.00,Acu-Link.com,2013-01-03 10:31:00,
2013-01-03 02:47:00,52.3,11.3,30.01,WSW,247,1.7,-999.0,19,-99.99,,,0.00,Acu-Link.com,2013-01-03 10:47:00,
2013-01-03 03:02:00,49.5,13.3,30.02,NE,45,0.0,-999.0,23,-99.99,,,0.00,Acu-Link.com,2013-01-03 11:02:00,
2013-01-03 03:17:00,48.9,15.5,30.02,South,180,0.0,-999.0,26,-99.99,,,0.00,Acu-Link.com,2013-01-03 11:17:00,
2013-01-03 03:33:00,48.9,13.7,30.02,WSW,247,0.0,-999.0,24,-99.99,,,0.00,Acu-Link.com,2013-01-03 11:33:00,
2013-01-03 03:48:00,46.4,15.9,30.01,SSW,202,3.2,-999.0,29,-99.99,,,0.00,Acu-Link.com,2013-01-03 11:48:00,
2013-01-03 04:03:00,49.5,14.2,30.02,East,90,0.0,-999.0,24,-99.99,,,0.00,Acu-Link.com,2013-01-03 12:03:00,
2013-01-03 04:19:00,47.8,14.6,30.02,SE,135,1.1,-999.0,26,-99.99,,,0.00,Acu-Link.com,2013-01-03 12:19:00,
2013-01-03 04:34:00,47.3,15.9,30.03,West,270,2.2,-999.0,28,-99.99,,,0.00,Acu-Link.com,2013-01-03 12:34:00,
2013-01-03 04:49:00,45.3,14.1,30.03,West,270,1.1,-999.0,28,-99.99,,,0.00,Acu-Link.com,2013-01-03 12:49:00,
2013-01-03 05:04:00,51.6,8.2,30.03,NW,315,4.7,-999.0,17,-99.99,,,0.00,Acu-Link.com,2013-01-03 13:04:00,
2013-01-03 05:20:00,53.2,8.2,30.03,West,270,4.2,-999.0,16,-99.99,,,0.00,Acu-Link.com,2013-01-03 13:20:00,
2013-01-03 05:35:00,52.7,7.8,30.03,WNW,292,4.2,-999.0,16,-99.99,,,0.00,Acu-Link.com,2013-01-03 13:35:00,
2013-01-03 05:51:00,53.1,6.7,30.03,West,270,5.8,-999.0,15,-99.99,,,0.00,Acu-Link.com,2013-01-03 13:51:00,
2013-01-03 06:06:00,54.0,7.4,30.04,NW,315,4.7,-999.0,15,-99.99,,,0.00,Acu-Link.com,2013-01-03 14:06:00,
2013-01-03 06:21:00,54.7,4.9,30.05,West,270,4.2,-999.0,13,-99.99,,,0.00,Acu-Link.com,2013-01-03 14:21:00,
2013-01-03 06:37:00,54.9,5.0,30.05,NNW,337,4.2,-999.0,13,-99.99,,,0.00,Acu-Link.com,2013-01-03 14:37:00,
2013-01-03 06:52:00,54.9,3.3,30.06,WSW,247,2.2,-999.0,12,-99.99,,,0.00,Acu-Link.com,2013-01-03 14:52:00,
2013-01-03 07:07:00,55.2,3.5,30.07,West,270,3.2,-999.0,12,-99.99,,,0.00,Acu-Link.com,2013-01-03 15:07:00,
2013-01-03 07:23:00,54.7,3.1,30.08,ESE,112,2.7,-999.0,12,-99.99,,,0.00,Acu-Link.com,2013-01-03 15:23:00,
2013-01-03 07:38:00,54.9,5.0,30.09,WNW,292,4.2,-999.0,13,-99.99,,,0.00,Acu-Link.com,2013-01-03 15:38:00,
2013-01-03 07:53:00,54.5,6.3,30.08,West,270,3.7,-999.0,14,-99.99,,,0.00,Acu-Link.com,2013-01-03 15:53:00,
2013-01-03 08:09:00,58.5,6.1,30.09,West,270,2.2,-999.0,12,-99.99,,,0.00,Acu-Link.com,2013-01-03 16:09:00,
2013-01-03 08:24:00,57.9,5.6,30.10,SSW,202,1.7,-999.0,12,-99.99,,,0.00,Acu-Link.com,2013-01-03 16:24:00,
2013-01-03 08:39:00,59.0,2.5,30.11,SW,225,2.7,-999.0,10,-99.99,,,0.00,Acu-Link.com,2013-01-03 16:39:00,
2013-01-03 08:54:00,59.7,5.1,30.10,West,270,2.2,-999.0,11,-99.99,,,0.00,Acu-Link.com,2013-01-03 16:54:00,
2013-01-03 09:10:00,61.7,2.3,30.11,SSW,202,8.3,-999.0,9,-99.99,,,0.00,Acu-Link.com,2013-01-03 17:10:00,
2013-01-03 09:25:00,62.1,2.6,30.11,NNW,337,8.3,-999.0,9,-99.99,,,0.00,Acu-Link.com,2013-01-03 17:25:00,
2013-01-03 09:40:00,63.3,-1.8,30.12,East,90,5.8,-999.0,7,-99.99,,,0.00,Acu-Link.com,2013-01-03 17:40:00,
2013-01-03 09:56:00,63.3,3.5,30.12,South,180,2.2,-999.0,9,-99.99,,,0.00,Acu-Link.com,2013-01-03 17:56:00,
2013-01-03 10:11:00,65.1,2.4,30.12,ENE,67,1.1,-999.0,8,-99.99,,,0.00,Acu-Link.com,2013-01-03 18:11:00,
2013-01-03 10:26:00,64.6,-0.9,30.12,NNW,337,1.7,-999.0,7,-99.99,,,0.00,Acu-Link.com,2013-01-03 18:26:00,
2013-01-03 10:42:00,65.5,2.7,30.12,South,180,2.2,-999.0,8,-99.99,,,0.00,Acu-Link.com,2013-01-03 18:42:00,
2013-01-03 10:57:00,65.7,-3.3,30.12,NNE,22,1.7,-999.0,6,-99.99,,,0.00,Acu-Link.com,2013-01-03 18:57:00,
2013-01-03 11:13:00,66.0,-3.1,30.11,NW,315,1.1,-999.0,6,-99.99,,,0.00,Acu-Link.com,2013-01-03 19:13:00,
2013-01-03 11:59:00,66.9,-6.2,30.07,SSW,202,0.0,-999.0,5,-99.99,,,0.00,Acu-Link.com,2013-01-03 19:59:00,
2013-01-03 12:14:00,67.3,-5.9,30.06,NNE,22,0.0,-999.0,5,-99.99,,,0.00,Acu-Link.com,2013-01-03 20:14:00,
2013-01-03 12:29:00,68.0,-10.0,30.05,South,180,2.2,-999.0,4,-99.99,,,0.00,Acu-Link.com,2013-01-03 20:29:00,
2013-01-03 12:44:00,69.1,-14.9,30.05,ENE,67,2.7,-999.0,3,-99.99,,,0.00,Acu-Link.com,2013-01-03 20:44:00,
2013-01-03 13:00:00,68.4,-5.1,30.05,WNW,292,2.2,-999.0,5,-99.99,,,0.00,Acu-Link.com,2013-01-03 21:00:00,
2013-01-03 13:15:00,69.4,-4.4,30.04,NNE,22,1.7,-999.0,5,-99.99,,,0.00,Acu-Link.com,2013-01-03 21:15:00,
2013-01-03 13:30:00,70.0,-8.6,30.04,South,180,2.2,-999.0,4,-99.99,,,0.00,Acu-Link.com,2013-01-03 21:30:00,
2013-01-03 13:46:00,69.8,-14.5,30.03,WNW,292,0.0,-999.0,3,-99.99,,,0.00,Acu-Link.com,2013-01-03 21:46:00,
2013-01-03 14:01:00,69.1,-9.2,30.03,SSW,202,3.7,-999.0,4,-99.99,,,0.00,Acu-Link.com,2013-01-03 22:01:00,
2013-01-03 14:16:00,68.5,-15.3,30.04,SSW,202,0.0,-999.0,3,-99.99,,,0.00,Acu-Link.com,2013-01-03 22:16:00,
2013-01-03 14:32:00,69.3,-4.5,30.04,SW,225,1.1,-999.0,5,-99.99,,,0.00,Acu-Link.com,2013-01-03 22:32:00,
2013-01-03 14:47:00,68.4,-5.1,30.04,SSW,202,3.2,-999.0,5,-99.99,,,0.00,Acu-Link.com,2013-01-03 22:47:00,
2013-01-03 15:03:00,67.6,-1.9,30.04,East,90,2.7,-999.0,6,-99.99,,,0.00,Acu-Link.com,2013-01-03 23:03:00,
2013-01-03 15:18:00,67.8,-1.8,30.05,South,180,2.2,-999.0,6,-99.99,,,0.00,Acu-Link.com,2013-01-03 23:18:00,
2013-01-03 15:33:00,66.4,0.5,30.05,SSW,202,3.7,-999.0,7,-99.99,,,0.00,Acu-Link.com,2013-01-03 23:33:00,
2013-01-03 15:49:00,66.4,3.3,30.05,WNW,292,0.0,-999.0,8,-99.99,,,0.00,Acu-Link.com,2013-01-03 23:49:00,
2013-01-03 16:04:00,64.4,-4.2,30.06,ESE,112,5.3,-999.0,6,-99.99,,,0.00,Acu-Link.com,2013-01-04 00:04:00,
2013-01-03 16:20:00,62.4,-5.7,30.06,West,270,1.1,-999.0,6,-99.99,,,0.00,Acu-Link.com,2013-01-04 00:20:00,
2013-01-03 16:35:00,60.8,-3.7,30.06,West,270,0.0,-999.0,7,-99.99,,,0.00,Acu-Link.com,2013-01-04 00:35:00,
2013-01-03 16:50:00,60.4,-10.8,30.06,West,270,2.7,-999.0,5,-99.99,,,0.00,Acu-Link.com,2013-01-04 00:50:00,
2013-01-03 17:06:00,59.2,-11.7,30.07,ESE,112,2.2,-999.0,5,-99.99,,,0.00,Acu-Link.com,2013-01-04 01:06:00,
2013-01-03 17:21:00,57.4,-9.3,30.07,West,270,2.7,-999.0,6,-99.99,,,0.00,Acu-Link.com,2013-01-04 01:21:00,
2013-01-03 17:36:00,57.4,-6.2,30.08,WNW,292,3.7,-999.0,7,-99.99,,,0.00,Acu-Link.com,2013-01-04 01:36:00,
2013-01-03 17:52:00,56.7,-3.9,30.08,WSW,247,3.2,-999.0,8,-99.99,,,0.00,Acu-Link.com,2013-01-04 01:52:00,
2013-01-03 18:07:00,56.7,-3.9,30.09,West,270,3.7,-999.0,8,-99.99,,,0.00,Acu-Link.com,2013-01-04 02:07:00,
2013-01-03 18:22:00,56.7,-3.9,30.10,WNW,292,2.2,-999.0,8,-99.99,,,0.00,Acu-Link.com,2013-01-04 02:22:00,
2013-01-03 18:38:00,55.9,-2.1,30.10,NNW,337,2.2,-999.0,9,-99.99,,,0.00,Acu-Link.com,2013-01-04 02:38:00,
2013-01-03 18:53:00,54.9,-2.8,30.10,SSW,202,0.0,-999.0,9,-99.99,,,0.00,Acu-Link.com,2013-01-04 02:53:00,
2013-01-03 19:08:00,54.0,-3.5,30.11,WNW,292,2.7,-999.0,9,-99.99,,,0.00,Acu-Link.com,2013-01-04 03:08:00,
2013-01-03 19:24:00,53.2,-4.1,30.11,WNW,292,1.7,-999.0,9,-99.99,,,0.00,Acu-Link.com,2013-01-04 03:24:00,
2013-01-03 19:39:00,52.7,-2.3,30.12,NNW,337,2.2,-999.0,10,-99.99,,,0.00,Acu-Link.com,2013-01-04 03:39:00,
2013-01-03 19:54:00,52.7,-2.3,30.12,WNW,292,2.2,-999.0,10,-99.99,,,0.00,Acu-Link.com,2013-01-04 03:54:00,
2013-01-03 20:10:00,51.8,-1.0,30.12,West,270,2.7,-999.0,11,-99.99,,,0.00,Acu-Link.com,2013-01-04 04:10:00,
2013-01-03 20:25:00,52.7,-2.3,30.12,WNW,292,3.2,-999.0,10,-99.99,,,0.00,Acu-Link.com,2013-01-04 04:25:00,
2013-01-03 20:40:00,52.9,-2.2,30.12,WNW,292,2.7,-999.0,10,-99.99,,,0.00,Acu-Link.com,2013-01-04 04:40:00,
2013-01-03 20:55:00,51.1,-1.5,30.12,SW,225,1.7,-999.0,11,-99.99,,,0.00,Acu-Link.com,2013-01-04 04:55:00,
2013-01-03 21:11:00,49.3,0.6,30.12,West,270,2.7,-999.0,13,-99.99,,,0.00,Acu-Link.com,2013-01-04 05:11:00,
2013-01-03 21:26:00,48.6,3.1,30.13,West,270,2.7,-999.0,15,-99.99,,,0.00,Acu-Link.com,2013-01-04 05:26:00,
2013-01-03 21:41:00,49.3,3.6,30.13,NNE,22,3.7,-999.0,15,-99.99,,,0.00,Acu-Link.com,2013-01-04 05:41:00,
2013-01-03 21:57:00,51.1,0.3,30.13,South,180,2.7,-999.0,12,-99.99,,,0.00,Acu-Link.com,2013-01-04 05:57:00,
2013-01-03 22:12:00,49.6,2.4,30.13,West,270,1.1,-999.0,14,-99.99,,,0.00,Acu-Link.com,2013-01-04 06:12:00,
2013-01-03 22:28:00,48.7,1.7,30.14,NNW,337,2.7,-999.0,14,-99.99,,,0.00,Acu-Link.com,2013-01-04 06:28:00,
2013-01-03 22:43:00,47.1,5.8,30.14,SSW,202,0.0,-999.0,18,-99.99,,,0.00,Acu-Link.com,2013-01-04 06:43:00,
2013-01-03 22:58:00,45.9,10.2,30.15,South,180,0.0,-999.0,23,-99.99,,,0.00,Acu-Link.com,2013-01-04 06:58:00,
2013-01-03 23:14:00,44.1,6.7,30.15,WNW,292,0.0,-999.0,21,-99.99,,,0.00,Acu-Link.com,2013-01-04 07:14:00,
2013-01-03 23:29:00,43.0,5.8,30.15,SW,225,0.0,-999.0,21,-99.99,,,0.00,Acu-Link.com,2013-01-04 07:29:00,
2013-01-03 23:44:00,42.6,7.4,30.15,SW,225,0.0,-999.0,23,-99.99,,,0.00,Acu-Link.com,2013-01-04 07:44:00,